COSMOS 2118

导读

COSMOS 2118是独联体(CIS)于1990年12月22日发射的一颗卫星,隶属于苏联/俄罗斯"宇宙"(COSMOS)系列卫星。该卫星系列用途广泛,涵盖军事侦察、早期预警、空间物理探测等多种任务,多数为军用卫星,也包含部分科学试验卫星,为航天技术发展和空间环境研究提供了重要支撑,是苏联/俄罗斯规模最大的卫星系列之一。

基本信息
目录编号:
21032
目录名称:
COSMOS 2118
国际标识:
1990-114E
轨道中心:
EARTH
卫星名称:
COSMOS 2118
卫星全名:
--
卫星状态:
在轨 (已飞行13050 天)
发射日期:
1990-12-22 UTC
国别 :
俄罗斯(独联体) (CIS)
星等 :
--
该卫星已列入 空间交会检测服务 Space Conjunction Data Service (SCDS) ,当前飞行风险评估等级: 无高风险
轨道信息
数据来源 国际轨道数据 AOE轨道数据
星历时间 2026-09-14T04:43:20+0800
8小时前
查看轨道信息
2026-09-12T23:00:00+0800
1天前
查看轨道信息
半长轴 7778.223km 7778.209km
偏心率 0.0010523 0.0009764
轨道倾角 82.564° 82.564°
近地点辐角 187.847° 192.461°
升交点赤经 121.716° 122.510°
平近点角 172.246° 288.177°
近地点 1391.9km 1392.477km
远地点 1408.272km 1407.667km
周期 113.784分钟 113.783分钟
每日圈数 12.655586 12.65562
详细信息
使用方式:
暂无
2D轨道图
3D轨道图
轨道高度分析图
轨道倾角分析图
轨道综合分析图
查看轨道综合分析图
交会数据列表
事件ID 空间交会对象 最接近时刻(TCA) 交会距离 交会风险概率(CRP) 交会风险指数(CRI) 操作
CDM_260915-213000-582402-103224
2026-09-15T
21:30:04+0000
0.763 km
远距离
6.417383E-5 中风险 0.71
CDM_260915-194402-103202-300325
2026-09-15T
19:44:18+0000
2.877 km
极远距离
1.239565E-6 低风险 0.37
CDM_260916-085802-023502-103223
2026-09-16T
08:58:21+0000
2.762 km
极远距离
7.001179E-7 极低风险 0.32
与全量物体交会距离演化趋势 订阅飞行安全评估服务
与全量物体交会风险概率演化趋势 订阅飞行安全评估服务